If you wish to contribute or participate in the discussions about articles you are invited to join SKYbrary as a registered user

 Actions

Linz

From SKYbrary Wiki

LOWL
Airport
ICAO: LOWL
Summary
Name Linz
Region Europe
Territory Austria AT.gif
Location Linz, Austria
Serving
Coordinates 48° 14' 1.46" N, 14° 11' 15.66" E
Runways
Designator Length Width Surface ROPS
9/27 3000 m9,842.52 ft
60 m196.85 ft
ASP no/no
09L/27R 660 m2,165.354 ft
45 m147.638 ft
GRS /


METAR
Observation LOWL 251420Z 27007KT 240V330 9999 FEW060 BKN200 12/04 Q1002 NOSIG
Station Linz / Hoersching-Flughafen
Date/Time 25 February 2020 14:20:00
Wind direction 270°
Wind speed 07 kts
Lowest cloud amount few clouds
Temperature 12°C
Dew point 4°C
Humidity 58%
QNH 1002 hPa
Weather condition n/a


Linz Airport

ICAO: LOWL IATA: LNZ

Description

International airport serving Linz, Austria.

Climatology

Humid Continental climate (Köppen climate classification Dfb) - Variable weather patterns and a large seasonal temperature variance. Summers are often warm and humid with frequent thunderstorms and winters can be very cold with frequent snowfall and persistent snow cover.

Maps

Terrain

Loading map...

Airport Layout

Loading map...


Accidents & Serious Incidents at or in vicinity of LOWL

None on SKYbrary